Regional Weather Roundup
Issued by NWS

Home | Current Version | Previous Version | Text Only | Print | Product List | Glossary Off
Versions: 1 2 3 4 5 6 7 8 9 10 11 12 13 14 15 16 17 18 19 20 21 22 23 24 25 26 27 28 29 30 31 32 33 34 35 36 37 38 39 40 41 42 43 44 45 46 47 48 49 50

000
ASUS45 KSLC 252010
RWRUT

UTAH REGIONAL WEATHER ROUNDUP
NATIONAL WEATHER SERVICE SALT LAKE CITY UT
200 PM MDT SAT APR 25 2015

UTZ001>011-023>025-252100-

NORTHERN UTAH

CITY           SKY/WX    TMP DP  RH WIND       PRES   REMARKS
BRIGHAM CITY   CLOUDY    55  32  42 NW3       29.75F
HILL AFB       CLOUDY    56  33  41 VRB5      29.72F
LOGAN          SUNNY     54  31  41 CALM      29.74F
OGDEN          CLOUDY    56  33  42 NW8       29.72F
PROVO AIRPORT  PTSUNNY   55  39  54 SW3       29.72F
SALT LAKE CITY CLOUDY    58  38  47 S9        29.70F
VERNAL         PTSUNNY   61  27  27 SW12      29.75F
WENDOVER       CLOUDY    54  32  43 NE5       29.71F
HEBER CITY     PTSUNNY   52  34  50 CALM      29.74F
WEST JORDAN    MOSUNNY   55  39  54 S9        29.71F

$$

UTZ012>022-026-027-252100-

SOUTHERN/CENTRAL UTAH

CITY           SKY/WX    TMP DP  RH WIND       PRES   REMARKS
BLANDING       PTSUNNY   54  40  58 S8        29.89F
BRYCE CANYON   CLOUDY    44  33  65 S20       29.82F
CEDAR CITY     CLOUDY    48  40  73 SW20G28   29.73S
DELTA          CLOUDY    58  38  46 S8        29.68F
HANKSVILLE     CLOUDY    54  41  62 CALM      29.76S
MILFORD        CLOUDY    50  27  40 SW22G31   29.71F
MOAB/CYNLANDS  PTSUNNY   56  41  57 NE9       29.73F
PRICE          CLOUDY    48  40  73 NE12      29.77F
ST GEORGE      CLOUDY    55  45  67 NW9       29.78S
KANAB          CLOUDY    48  39  71 SW14G20   29.80F

$$

REGIONAL REPORTS     COLORADO/ARIZONA

CITY           SKY/WX    TMP DP  RH WIND       PRES   REMARKS
CRAIG, CO      MOSUNNY   50  36  58 VRB6      29.83F
GRAND JUNCTION MOSUNNY   56  41  57 VRB5      29.80F
RIFLE          CLOUDY    49  39  68 CALM      29.85F
MONTROSE       PTSUNNY   50  41  71 N16       29.85F
CORTEZ         PTSUNNY   54  40  59 E5        29.87F
PAGE, AZ       CLOUDY    66  33  29 SW13G24   29.74F
GRAND CANYON   LGT RAIN  51  35  54 SW26G41   29.86F
KINGMAN        LGT RAIN  52  43  71 S15       29.84F
FLAGSTAFF      LGT RAIN  42  40  92 SW16G29   29.90F FOG

$$

REGIONAL REPORTS    NEVADA/IDAHO/WYOMING

CITY           SKY/WX    TMP DP  RH WIND       PRES   REMARKS
LAS VEGAS, NV  CLOUDY    67  30  25 S21G29    29.68F
ELY            LGT RAIN  38  36  92 W15G26    29.73R WCI  29
ELKO           CLOUDY    42  36  79 W15       29.74F
POCATELLO, ID  PTSUNNY   52  28  39 NE3       29.77F
BURLEY         CLOUDY    53  31  42 N3        29.74F
EVANSTON, WY   MOSUNNY   48  27  44 SW13G21   29.78F
ROCK SPRINGS   MOSUNNY   50  23  34 W16       29.80F
KEMMERER       MOSUNNY   45  27  49 SW13G18   29.80F

$$



USA.gov is the U.S. government's official web portal to all federal, state and local government web resources and services.